• Join FlightAware (Why Join?)
  • Login
  • US Flag 
Rudolph Flight #1: Arrived! 
04:52PM EST


 

Airport Tracker/Info


-or-


 

Live Flight TrackerFlight Track Log ✈ EJA922 ✈ 14-Aug-2013 ✈ KINT - KIXD

Flight Track Log - Related Links

Times and Time Zones

All times are in EDT time to prevent confusion due to time zone crossing. See the EJA922 flight status page for this flight to view local times or setup timezone preferences in your user account.

Time Position Orientation Groundspeed Altitude Reporting Facility
EDT Latitude Longitude Course Direction KTS MPH feet Rate Location/Type
05:35PM 36.2467 -80.3469 256° West 266 306 8,200  Level Atlanta Center
05:36PM 36.2969 -80.4167 312° West 271 312 10,700 2,160 Climbing Atlanta Center
05:37PM 36.3533 -80.4917 313° West 304 350 12,600 2,040 Climbing Atlanta Center
05:38PM 36.4292 -80.5939 313° West 344 396 14,800 1,920 Climbing Atlanta Center
05:39PM 36.4589 -80.6933 290° West 344 396 16,500 1,800 Climbing Atlanta Center
05:40PM 36.5353 -80.9073 256° West  Level FlightAware Approximate
05:40PM 36.4375 -80.8208 258° West 355 409 18,400  Level Atlanta Center
05:41PM 36.5053 -81.0567 256° West  Level FlightAware Approximate
05:41PM 36.4197 -80.9428 260° West 366 421 20,400  Level Atlanta Center
05:42PM 36.3997 -81.0647 259° West 366 421 22,400 1,980 Climbing Atlanta Center
05:43PM 36.3564 -81.1744 244° Southwest 355 409 24,400 1,740 Climbing Atlanta Center
05:44PM 36.3006 -81.2847 238° Southwest 369 425 25,900 1,260 Climbing Atlanta Center
05:45PM 36.2425 -81.3975 237° Southwest 386 444 27,000 540 Climbing Atlanta Center
05:46PM 36.2161 -81.5294 256° West 402 463 27,000 300 Level Atlanta Center
05:47PM 36.1961 -81.6794 261° West 433 498 27,700 900 Climbing Atlanta Center
05:48PM 36.1783 -81.8369 262° West 438 504 28,800 1,080 Climbing Atlanta Center
05:49PM 36.1600 -81.9864 261° West 433 498 29,900 1,080 Climbing Atlanta Center
05:50PM 36.1414 -82.1336 261° West 439 505 31,000 1,200 Climbing Atlanta Center
05:51PM 36.1186 -82.2806 259° West 439 505 32,400 1,500 Climbing Atlanta Center
05:52PM 36.0997 -82.4250 261° West 439 505 34,000 1,800 Climbing Atlanta Center
05:53PM 36.0808 -82.5692 261° West 429 494 36,000 1,620 Climbing Atlanta Center
05:54PM 36.0636 -82.7081 261° West 429 494 37,300 1,140 Climbing Atlanta Center
05:55PM 36.0442 -82.8522 261° West 429 494 38,300 960 Climbing Atlanta Center
05:56PM 36.0247 -82.9964 261° West 434 499 39,300 840 Climbing Atlanta Center
05:57PM 36.0050 -83.1403 260° West 428 493 40,000 300 Climbing Atlanta Center
05:58PM 35.9872 -83.2869 262° West 434 499 40,000  Level Atlanta Center
05:59PM 35.9692 -83.4358 262° West 440 506 40,000  Level Atlanta Center
06:00PM 35.9469 -83.5872 260° West 447 514 40,000  Level Atlanta Center
06:01PM 35.9264 -83.7336 260° West 447 514 40,000  Level Atlanta Center
06:02PM 35.9081 -83.8825 261° West 447 514 40,000  Level Atlanta Center
06:03PM 35.9164 -84.0389 274° West 447 514 40,000  Level Atlanta Center
06:04PM 35.9308 -84.1925 277° West 447 514 40,000  Level Atlanta Center
06:05PM 35.9453 -84.3492 277° West 452 520 40,000  Level Atlanta Center
06:06PM 35.9614 -84.5031 277° West 457 526 40,000  Level Atlanta Center
06:07PM 35.9753 -84.6544 277° West 462 532 40,000  Level Atlanta Center
06:10PM 36.0108 -85.0300 277° West 480 552 40,000  Level Memphis Center
06:11PM 36.0214 -85.1833 275° West 470 541 40,000  Level Memphis Center
06:12PM 36.0342 -85.3417 276° West 470 541 40,000  Level Memphis Center
06:13PM 36.0467 -85.5000 276° West 465 535 40,000  Level Memphis Center
06:14PM 36.0589 -85.6558 276° West 465 535 40,000  Level Memphis Center
06:15PM 36.0711 -85.8144 275° West 465 535 40,000  Level Memphis Center
06:16PM 36.0836 -85.9883 275° West 465 535 40,000  Level Memphis Center
06:17PM 36.0953 -86.1444 275° West 459 528 40,000  Level Memphis Center
06:18PM 36.1069 -86.3031 275° West 464 534 40,000  Level Memphis Center
06:19PM 36.1183 -86.4617 275° West 464 534 40,000  Level Memphis Center
06:20PM 36.1294 -86.6206 275° West 464 534 40,000  Level Memphis Center
06:21PM 36.1300 -86.7800 270° West 459 528 40,000  Level Memphis Center
06:22PM 36.1339 -86.9261 272° West 465 535 40,000  Level Memphis Center
06:23PM 36.1364 -87.0881 271° West 470 541 40,000  Level Memphis Center
06:24PM 36.1403 -87.2419 272° West 463 533 40,000  Level Memphis Center
06:25PM 36.1425 -87.4142 271° West 458 527 40,000  Level Memphis Center
06:26PM 36.1439 -87.5733 271° West 458 527 40,000  Level Memphis Center
06:27PM 36.1433 -87.7303 270° West 458 527 40,000  Level Memphis Center
06:28PM 36.1442 -87.8844 270° West 458 527 40,000  Level Memphis Center
06:29PM 36.1453 -88.0439 271° West 458 527 40,000  Level Memphis Center
06:30PM 36.1461 -88.1981 270° West 458 527 40,000  Level Memphis Center
06:31PM 36.1444 -88.3547 269° West 453 521 40,000  Level Memphis Center
06:32PM 36.1447 -88.5089 270° West 458 527 40,000  Level Memphis Center
06:33PM 36.1428 -88.6658 269° West 458 527 40,000  Level Memphis Center
06:34PM 36.1408 -88.8225 269° West 458 527 40,000  Level Memphis Center
06:35PM 36.1383 -88.9794 269° West 458 527 40,000  Level Memphis Center
06:36PM 36.1358 -89.1389 269° West 458 527 40,000  Level Memphis Center
06:37PM 36.1331 -89.2803 269° West 458 527 40,000  Level Memphis Center
06:38PM 36.1303 -89.4394 269° West 458 527 40,000  Level Memphis Center
06:39PM 36.1311 -89.5964 270° West 458 527 40,000  Level Memphis Center
06:40PM 36.1281 -89.7531 269° West 458 527 40,000  Level Memphis Center
06:41PM 36.1264 -89.9100 269° West 458 527 40,000  Level Memphis Center
06:42PM 36.1250 -90.0667 269° West 458 527 40,000  Level Memphis Center
06:43PM 36.1211 -90.2258 268° West 458 527 40,000  Level Memphis Center
06:44PM 36.1189 -90.3800 269° West 458 527 40,000  Level Memphis Center
06:45PM 36.1167 -90.5369 269° West 458 527 40,000  Level Memphis Center
06:46PM 36.1144 -90.6936 269° West 458 527 40,000  Level Memphis Center
06:47PM 36.1097 -90.8503 268° West 458 527 40,000  Level Memphis Center
06:48PM 36.1319 -91.0019 280° West 458 527 40,000  Level Memphis Center
06:49PM 36.2022 -91.1286 305° West 443 510 40,000  Level Memphis Center
06:50PM 36.2681 -91.2606 302° West 443 510 40,000  Level Memphis Center
06:51PM 36.3419 -91.3900 305° West 450 518 40,000  Level Memphis Center
06:52PM 36.4097 -91.5200 303° West 450 518 40,000  Level Memphis Center
06:54PM 36.5489 -91.7728 304° West 451 519 40,000  Level Kansas City Center
06:55PM 36.6197 -91.9083 303° West 450 518 40,000  Level Kansas City Center
06:56PM 36.6881 -92.0381 303° West 448 516 40,000  Level Kansas City Center
06:57PM 36.7575 -92.1689 304° West 449 517 40,000  Level Kansas City Center
06:58PM 36.8250 -92.2986 303° West 447 514 40,000  Level Kansas City Center
06:59PM 36.9061 -92.4542 303° West 445 512 40,000  Level Kansas City Center
07:00PM 36.9722 -92.5833 303° West 442 509 40,000 -600 Level Kansas City Center
07:01PM 37.0383 -92.7111 303° West 439 505 38,800 -1,200 Descending Kansas City Center
07:02PM 37.1042 -92.8389 303° West 437 503 37,500 -1,200 Descending Kansas City Center
07:03PM 37.1700 -92.9675 303° West 435 501 36,400 -1,140 Descending Kansas City Center
07:04PM 37.2367 -93.0978 303° West 437 503 35,200 -1,380 Descending Kansas City Center
07:05PM 37.3056 -93.2344 302° West 449 517 33,600 -1,500 Descending Kansas City Center
07:06PM 37.3989 -93.3569 314° West 476 548 32,100 -1,620 Descending Kansas City Center
07:07PM 37.5525 -93.4428 336° Northwest 491 565 30,300 -1,680 Descending Kansas City Center
07:08PM 37.6814 -93.5153 336° Northwest 499 574 28,800 -1,500 Descending Kansas City Center
07:09PM 37.8100 -93.5856 337° Northwest 500 575 27,300 -1,500 Descending Kansas City Center
07:10PM 37.9342 -93.6569 336° Northwest 492 566 25,700 -1,740 Descending Kansas City Center
07:11PM 38.0592 -93.7256 337° Northwest 488 562 23,800 -2,100 Descending Kansas City Center
07:12PM 38.1797 -93.7919 337° Northwest 478 550 21,400 -2,460 Descending Kansas City Center
07:13PM 38.2917 -93.8564 336° Northwest 455 524 18,900 -2,520 Descending Kansas City Center
07:14PM 38.4214 -93.9306 336° Northwest 432 497 16,200 -2,340 Descending Kansas City Center
07:15PM 38.5258 -93.9933 335° Northwest 425 489 14,100 -1,980 Descending Kansas City Center
07:17PM 38.6247 -94.0506 336° Northwest 412 474 12,200 -1,920 Descending Kansas City Center
07:18PM 38.6889 -94.1775 303° West 397 457 10,100 -1,080 Descending Kansas City Center
07:19PM 38.7261 -94.2950 292° West 377 434 10,000 -720 Descending Kansas City Center
07:20PM 38.7603 -94.3969 293° West 279 321 8,700 -1,500 Descending Kansas City Center
07:21PM 38.7872 -94.4858 291° West 278 320 7,000 -1,800 Descending Kansas City Center
07:22PM 38.8147 -94.5700 293° West 270 311 5,000 -1,440 Descending Kansas City Center
07:23PM 38.8486 -94.6683 294° West 270 311 4,000 -720 Descending Kansas City Center
07:24PM 38.8728 -94.7414 293° West 238 274 3,600 -720 Descending Kansas City Center
07:25PM 38.8997 -94.8167 295° West 212 244 2,600 -600 Descending Kansas City Center
07:26PM 38.8981 -94.8747 268° West 173 199 2,400 -540 Descending Kansas City Center
07:27PM 38.8586 -94.8928 200° South 137 158 1,600 -600 Descending Kansas City Center
07:28PM 38.8231 -94.8903 177° South 129 148 1,200 -420 Descending Kansas City Center